Regional Weather Roundup
Issued by NWS

Home | Current Version | Previous Version | Graphics & Text | Print | Product List | Glossary On
Versions: 1 2 3 4 5 6 7 8 9 10 11 12 13 14 15 16 17 18 19 20 21 22 23 24 25 26 27 28 29 30 31 32 33 34 35 36 37 38 39 40 41 42 43 44 45 46 47 48 49 50
000
ASUS43 KLOT 250102
RWRIL

ILLINOIS REGIONAL WEATHER ROUNDUP
NATIONAL WEATHER SERVICE CHICAGO/ROMEOVILLE IL
800 PM CDT FRI MAR 24 2017

NOTE: "FAIR" INDICATES FEW OR NO CLOUDS BELOW 12,000 FEET WITH NO
SIGNIFICANT WEATHER AND/OR OBSTRUCTIONS TO VISIBILITY.

* THESE STATIONS ARE NOT UNDER NWS QUALITY CONTROL. THEY ALSO MAY NOT
  REPORT WEATHER SUCH AS PRECIPITATION OR FOG.

ILZ001-002-007-009-015-016-024-250200-
NORTHWEST ILLINOIS

CITY           SKY/WX    TMP DP  RH WIND       PRES   REMARKS
MOLINE         LGT RAIN  57  53  86 NW5       29.99R
STERLING*      RAIN      58  54  86 W6        30.02R
SAVANNA*       LGT RAIN  55  54  94 SW5       30.01R
$$

ILZ003-004-008-010-011-017-018-250200-
NORTH CENTRAL ILLINOIS

CITY           SKY/WX    TMP DP  RH WIND       PRES   REMARKS
ROCKFORD       LGT RAIN  50  41  71 NE12      30.03R
FREEPORT*      LGT RAIN  51  48  88 N8        30.02R
ROCHELLE*      CLOUDY    51  42  71 NE15      29.99R
DE KALB*       CLOUDY    48  40  71 NE18      30.00R
PERU*          CLOUDY    64  46  51 W10       29.97R
$$

ILZ005-006-012>014-019>023-250200-
NORTHEAST ILLINOIS

CITY           SKY/WX    TMP DP  RH WIND       PRES   REMARKS
CHICAGO-OHARE  LGT RAIN  44  36  73 NE12G22   30.04R
CHICAGO-MIDWAY TSTM      44  40  85 N17G24    30.04R VSB 1
AURORA         CLOUDY    51  40  65 E15G25    30.00R
LANSING*       CLOUDY    43  39  86 N14       30.04R
JOLIET*        CLOUDY    55  52  90 NE12      29.97S
WAUKEGAN       CLOUDY    39  36  89 N14G24    30.04R WCI  31
DUPAGE AIRPORT CLOUDY    47  39  74 NE10      30.01R
WHEELING       CLOUDY    41  38  89 N12G17    30.03R
MORRIS*        CLOUDY    61  57  86 CALM      29.95F
NORTHERLY ISL    N/A     40  36  86 N16         N/A
$$

LMZ740>746-250200-
SOUTHERN LAKE MICHIGAN

STATION/POSITION SKY/WX   TEMP    WIND        PRES    VSBY  WAVE
                          AIR SEA DIR/SP/G                  HT/PER
                          (F)     (DEG/KT/KT) (MB)    (MI)  (FT/S)
HARRISON CRIB                     360/ 12/ 15   N/A
BURNHAM HARBOR                    330/ 13/ 22   N/A
CALUMET HARBOR                    340/ 11/ 20 1016.3R
BURNS HARBOR               41     360/  5/ 10 1017.9R
MICHIGAN CITY                      30/ 14/ 15   N/A
$$

ILZ025>027-034>036-040-047-049-050-058-095>099-250200-
WEST-CENTRAL ILLINOIS

CITY           SKY/WX    TMP DP  RH WIND       PRES   REMARKS
QUINCY         CLOUDY    56  56 100 CALM      29.97R FOG
GALESBURG*     CLOUDY    56  54  92 NW5       29.97F
MACOMB*        RAIN      56  55  96 NE5       29.98S
JACKSONVILLE*  CLOUDY    61  53  74 N6        29.98R
PITTSFIELD*    CLOUDY    60  55  83 NE5       29.97R
$$

ILZ028>032-037-038-041>044-048-051>054-059>061-250200-
CENTRAL ILLINOIS

CITY           SKY/WX    TMP DP  RH WIND       PRES   REMARKS
PONTIAC        CLOUDY    71  57  62 S23G32    29.98R
BLOOMINGTON    CLOUDY    67  56  67 S15       29.98R
DECATUR        MOCLDY    68  55  63 S18       30.00R
PEORIA         CLOUDY    64  52  64 NW8       29.99R
LACON*         CLOUDY    65  49  55 W16       29.98R
LINCOLN*       CLOUDY    68  51  55 W3        29.99R
SPRINGFIELD    CLOUDY    71  51  49 NW6       29.98R
TAYLORVILLE    NOT AVBL
$$

ILZ033-039-045-046-055>057-062-063-250200-
EAST-CENTRAL ILLINOIS

CITY           SKY/WX    TMP DP  RH WIND       PRES   REMARKS
CHAMPAIGN      CLOUDY    67  54  63 S14       30.01R
RANTOUL*       CLOUDY    69  57  65 S15       30.00S
MATTOON        CLOUDY    68  56  65 S12       30.03R
$$

ILZ079-100>102-250200-
SOUTHWEST ILLINOIS

CITY           SKY/WX    TMP DP  RH WIND       PRES   REMARKS
ALTON          CLOUDY    68  54  60 SE9       29.97S
BELLEVILLE     CLOUDY    69  58  67 SE10      29.98R
CAHOKIA*       CLOUDY    72  53  51 S8        29.97R
SPARTA*        CLOUDY    69  57  66 S8        30.02R
$$

ILZ064>066-069>071-074>076-080>082-084>086-088>090-092>094-250200-
SOUTH-CENTRAL ILLINOIS

CITY           SKY/WX    TMP DP  RH WIND       PRES   REMARKS
CARBONDALE     CLOUDY    68  57  68 SE12      30.03R
CAIRO*         PTCLDY    64  56  74 SE5       30.04R
EFFINGHAM*     CLOUDY    69  57  65 S10       30.06R
MARION         CLOUDY    70  57  64 S7        30.05R
MT. VERNON     CLOUDY    68  56  65 S8        30.05R
CENTRALIA*     CLOUDY    68  58  72 SE10      30.03R
SALEM*         MOCLDY    70  56  61 S5        30.03R
$$

ILZ067-068-072-073-078-083-087-091-250200-
SOUTHEAST ILLINOIS

CITY           SKY/WX    TMP DP  RH WIND       PRES   REMARKS
LAWRENCEVILLE  PTCLDY    65  54  67 S8        30.08R
FLORA*         CLOUDY    66  57  73 S6        30.05R
FAIRFIELD*     CLOUDY    67  56  68 S5        30.05R
HARRISBURG*    CLOUDY    69  56  63 S8        30.07R
ROBINSON*      CLOUDY    67  55  63 S9        30.07R
CARMI*         CLOUDY    65  55  70 S9        30.07R
$$

ABBREVIATIONS USED IN REMARKS
   TC - TEMPERATURE IN CELSIUS
  WCI - WIND CHILL INDEX
   HX - HEAT INDEX
  VSB - VISIBILITY
$$




USA.gov is the U.S. government's official web portal to all federal, state and local government web resources and services.